Vertical_Velocity
-6 -11 4 9 5 7 -2 -6 -1 8 26 -22 -4 -6 4 5 -1 1 3 -4 -5 -0 2 2 -2 -1 -1 -4 1 0 1 4 -0 -2 -2 -2 -1 -5 2 5 2 -2 -3 0
-8 -7 12 2 7 2 -8 -5 12 -7 17 -14 16 -13 3 -1 3 3 1 2 -3 -7 -2 3 -1 -4 -4 -4 -2 -1 1 -0 -2 -1 -0 2 -1 3 -2 -4 -0 4 3 3
-18 18 7 -4 -9 6 -3 9 3 -35 29 -2 7 -54 2 7 -5 -4 6 1 1 -3 1 3 4 1 1 0 -3 -2 -1 1 2 1 1 -1 -2 0 -1 0 -0 -2 -0 -0
-27 19 6 -4 -14 24 -59 59 -1 0 12 -36 49 -74 6 -2 1 -1 4 3 6 -5 1 7 7 1 -2 -1 -1 -2 2 0 -4 -1 4 2 -3 -4 2 -3 -4 2 -3 -1
-1 -5 -2 -18 7 25 -59 30 4 -0 -0 14 -13 14 -22 8 4 10 14 4 4 3 2 -0 -1 -4 -8 -3 3 2 0 4 4 2 0 3 2 -1 1 -1 12 3 -1 -1
-14 -0 -10 4 -1 9 10 -9 9 -0 -5 -0 -32 45 -107 16 10 6 7 12 -1 -1 -12 -4 -1 1 3 -4 -4 3 3 2 5 5 4 2 3 4 -5 4 7 3 2 4
-13 4 -1 -6 -16 17 15 1 -15 -0 8 -18 -2 25 -101 15 12 10 -2 2 9 3 -22 4 10 -1 3 1 -3 -13 -6 -1 1 4 1 1 3 5 0 -5 -1 3 3 3
-8 -9 -0 14 2 -18 1 7 1 -7 1 -13 -9 -36 -67 -15 3 6 5 21 10 17 2 -1 7 2 3 7 10 2 -6 -12 2 -1 -2 5 -4 2 6 1 2 1 1 1
-10 -28 20 1 18 -9 11 -13 23 4 -5 -0 -16 -36 -51 -1 11 23 10 2 -16 -21 6 -13 8 2 -5 11 6 2 6 2 -4 1 8 9 7 2 2 3 0 1 0 0
-19 -39 6 19 -2 11 -4 7 -7 32 6 1 -44 -22 -30 11 3 -3 6 9 -7 -4 -7 25 25 8 7 7 7 -1 3 7 3 4 4 3 1 2 2 -2 -4 -2 1 1
-3 -14 14 -1 17 9 21 16 0 -3 -4 8 -1 -60 9 13 11 7 16 29 10 -6 6 12 -42 15 14 10 14 -1 -1 -3 -3 -2 -6 -2 -0 0 2 3 1 1 3 3
-10 -18 -27 1 16 5 9 -2 8 4 4 3 13 -76 14 31 19 19 12 28 12 -7 -24 6 30 10 19 9 9 6 13 12 10 8 7 7 5 2 0 -1 -3 -3 -1 -7
3 -18 -33 -9 5 12 10 -8 -2 -6 1 4 1 -73 28 18 7 8 -2 10 10 4 -17 1 -4 3 -7 3 20 4 14 -1 2 7 5 1 5 3 -0 -0 2 -6 -6 0
-4 3 -10 -17 9 -5 6 10 0 7 -1 -9 3 -58 57 22 -5 -2 -3 39 10 3 -8 -2 0 3 1 15 15 15 11 -6 6 2 -0 2 7 7 2 2 -4 -2 -3 -1
-4 -11 -5 -1 -2 -2 0 12 18 1 5 -13 30 -67 48 -2 -1 9 9 13 23 2 -9 -16 -19 -6 6 3 9 -12 24 -3 3 6 -3 -3 -1 -2 -1 -1 -1 1 -3 -0
5 -11 -6 -2 -2 -2 -18 -2 2 18 15 -12 -12 -24 -5 -1 -3 2 13 4 13 13 7 33 9 13 6 9 -12 11 5 1 12 18 6 -2 -1 -0 -0 -4 0 -3 -2 -2
3 -5 3 -16 4 -2 -35 14 4 2 4 -6 -7 -6 -10 1 4 7 4 6 3 -16 -3 3 12 -6 5 2 -0 -3 9 13 3 1 6 3 -2 -0 -2 -2 -3 -2 -0 -3
2 14 8 -20 5 -35 11 -3 7 8 6 0 -25 7 -22 -6 9 13 -3 -1 3 -4 -6 5 2 1 4 4 4 14 2 2 1 -1 -6 -2 -3 -3 2 3 -3 -0 -1 -2
3 2 -7 -22 3 -17 -39 37 30 18 -21 -8 -15 -10 -10 -4 8 4 1 -2 -2 -4 -10 -12 -6 -4 6 2 8 79 56 22 -3 -7 -2 -9 -2 2 1 -2 1 2 -2 -1
6 1 -9 3 -11 -36 5 22 14 9 -46 -8 2 -2 -2 2 -2 10 0 -3 -11 -4 -5 -5 6 11 5 7 4 3 4 -7 6 4 -3 6 -0 -5 -6 3 3 -1 2 -2
1 5 -5 1 -6 -67 36 19 15 -3 -12 -11 3 -4 -5 -10 -9 9 6 3 -5 -0 -1 -1 2 3 2 1 -2 -3 -7 14 20 2 2 0 -2 -5 -0 2 -0 -2 -2 -3
-4 3 7 6 1 -73 17 21 12 -16 -3 -6 5 -13 -12 -3 0 4 1 -2 0 -9 5 1 -2 -3 -6 -5 -3 -3 -3 21 5 8 3 3 -1 -4 3 -1 -1 -4 -2 -4
-21 6 3 1 -19 -18 20 -4 2 -0 -26 7 -6 -5 -9 0 3 -3 -2 -7 -2 1 -1 -5 -7 2 1 3 -1 5 1 4 -8 -5 -1 -2 -2 3 0 -5 -4 -1 -0 -3
-4 11 -28 30 14 -36 31 -0 -4 10 -11 3 3 -3 -5 -0 -1 -2 4 1 -2 7 4 50 5 1 -2 -3 -5 44 7 1 10 16 4 -0 0 1 -1 0 -1 -4 -2 -4
20 5 27 4 -11 25 -2 -2 3 -4 -5 -7 -2 -7 -3 -8 -0 3 0 4 -0 15 5 4 1 2 -4 5 38 36 20 14 4 5 3 -1 -2 1 1 -2 -3 -3 -3 -3
25 -5 1 -25 1 15 -24 11 3 -7 -6 2 -8 -9 -4 -5 1 1 11 9 -1 3 5 15 -0 33 -1 -2 5 9 7 1 -2 -0 -3 -1 2 3 0 -8 -9 -1 -1 -4
Height
5828 5828 5827 5835 5837 5834 5833 5835 5834 5838 5843 5835 5834 5835 5839 5844 5842 5844 5844 5843 5843 5844 5845 5844 5842 5841 5839 5837 5835 5838 5840 5838 5836 5836 5834 5833 5832 5832 5832 5831 5831 5830 5829 5828
5814 5815 5821 5822 5822 5821 5820 5820 5822 5826 5831 5828 5827 5826 5825 5829 5836 5838 5836 5837 5836 5838 5838 5837 5836 5836 5834 5834 5832 5830 5831 5833 5831 5830 5829 5828 5827 5825 5824 5824 5822 5821 5821 5820
5799 5806 5806 5804 5807 5807 5810 5809 5810 5813 5818 5817 5814 5813 5816 5821 5820 5828 5828 5829 5829 5832 5830 5830 5830 5829 5828 5828 5827 5826 5826 5826 5825 5824 5823 5823 5821 5820 5818 5817 5816 5815 5814 5813
5785 5790 5791 5792 5794 5794 5795 5804 5799 5798 5800 5798 5808 5795 5806 5808 5812 5813 5822 5823 5821 5821 5821 5820 5820 5820 5820 5820 5820 5820 5819 5819 5818 5817 5816 5815 5814 5813 5811 5810 5809 5808 5807 5805
5774 5773 5774 5774 5778 5781 5778 5785 5783 5783 5782 5783 5789 5782 5794 5800 5801 5807 5815 5814 5813 5810 5808 5809 5809 5810 5811 5812 5813 5813 5813 5812 5813 5811 5811 5808 5807 5806 5804 5804 5802 5801 5800 5799
5761 5763 5760 5764 5766 5768 5768 5769 5767 5767 5769 5763 5776 5772 5780 5789 5792 5799 5803 5804 5800 5798 5797 5800 5803 5801 5801 5802 5804 5805 5806 5805 5806 5806 5804 5803 5801 5800 5800 5797 5795 5794 5794 5792
5750 5754 5754 5750 5748 5756 5756 5755 5749 5751 5752 5750 5766 5760 5764 5779 5782 5788 5789 5789 5790 5789 5788 5790 5793 5795 5793 5793 5794 5796 5798 5797 5797 5797 5796 5795 5794 5793 5792 5791 5790 5789 5787 5786
5737 5749 5745 5744 5739 5739 5742 5741 5738 5732 5736 5739 5748 5742 5749 5764 5772 5774 5779 5777 5775 5775 5777 5780 5782 5784 5785 5785 5787 5787 5788 5789 5787 5787 5787 5786 5785 5785 5784 5783 5782 5781 5780 5778
5726 5736 5738 5737 5734 5731 5736 5731 5734 5725 5722 5721 5732 5737 5743 5754 5759 5765 5764 5758 5757 5759 5769 5770 5769 5772 5774 5776 5776 5777 5778 5780 5781 5779 5778 5776 5776 5775 5775 5774 5773 5771 5770 5767
5716 5720 5727 5728 5727 5727 5721 5723 5722 5718 5712 5713 5718 5726 5729 5746 5745 5745 5749 5749 5743 5748 5745 5750 5757 5760 5760 5763 5765 5766 5767 5768 5769 5769 5769 5768 5767 5766 5765 5763 5762 5762 5760 5758
5705 5709 5717 5717 5719 5718 5714 5709 5708 5707 5707 5708 5707 5717 5723 5727 5733 5736 5742 5739 5734 5735 5732 5735 5735 5748 5751 5754 5756 5756 5755 5754 5754 5755 5756 5757 5756 5755 5755 5754 5752 5751 5748 5746
5691 5694 5700 5707 5709 5705 5701 5697 5697 5699 5699 5697 5699 5708 5715 5717 5723 5726 5727 5725 5722 5719 5724 5724 5730 5732 5736 5738 5740 5742 5744 5744 5745 5746 5746 5747 5747 5746 5744 5742 5741 5739 5736 5734
5682 5683 5685 5695 5697 5690 5689 5688 5686 5688 5687 5688 5687 5699 5707 5707 5706 5706 5706 5705 5707 5710 5711 5715 5716 5718 5721 5724 5729 5732 5731 5732 5735 5735 5735 5734 5734 5732 5731 5730 5727 5724 5722 5721
5668 5672 5672 5676 5679 5674 5678 5678 5676 5674 5674 5675 5676 5678 5694 5695 5683 5688 5692 5689 5690 5693 5696 5702 5707 5708 5710 5714 5717 5719 5717 5720 5722 5722 5722 5722 5722 5720 5718 5716 5714 5712 5710 5707
5652 5654 5657 5660 5659 5657 5660 5664 5665 5663 5660 5659 5666 5670 5675 5666 5673 5678 5681 5681 5679 5676 5681 5691 5696 5699 5701 5700 5703 5705 5706 5707 5710 5709 5709 5708 5708 5707 5705 5703 5701 5699 5696 5691
5639 5641 5642 5645 5644 5642 5641 5646 5645 5647 5645 5645 5649 5658 5654 5653 5662 5666 5667 5665 5661 5662 5663 5684 5686 5685 5688 5691 5694 5694 5695 5696 5695 5691 5695 5695 5694 5693 5691 5690 5688 5686 5681 5676
5628 5625 5625 5628 5627 5624 5626 5636 5629 5632 5627 5630 5634 5639 5639 5639 5646 5651 5652 5653 5652 5654 5656 5664 5670 5672 5677 5677 5677 5682 5686 5686 5684 5685 5681 5681 5681 5679 5678 5677 5675 5671 5667 5661
5613 5610 5607 5609 5610 5603 5623 5624 5618 5609 5609 5610 5615 5619 5624 5626 5630 5635 5637 5641 5645 5646 5648 5653 5657 5663 5666 5668 5669 5670 5671 5670 5671 5669 5668 5668 5669 5668 5667 5665 5661 5657 5652 5647
5595 5592 5590 5588 5593 5593 5608 5615 5597 5584 5592 5597 5598 5598 5606 5610 5613 5620 5624 5628 5633 5640 5643 5645 5649 5653 5653 5655 5653 5650 5648 5653 5654 5656 5656 5655 5657 5656 5654 5652 5647 5642 5637 5632
5581 5578 5575 5576 5574 5576 5599 5587 5577 5567 5573 5586 5576 5575 5582 5589 5595 5605 5613 5616 5621 5627 5631 5634 5636 5640 5643 5643 5642 5643 5642 5641 5642 5643 5644 5646 5645 5644 5641 5637 5633 5628 5623 5617
5567 5563 5559 5559 5554 5564 5579 5571 5559 5558 5570 5568 5563 5564 5564 5572 5582 5590 5603 5608 5612 5616 5619 5623 5626 5629 5630 5632 5633 5632 5631 5629 5628 5630 5632 5634 5633 5630 5627 5624 5620 5614 5609 5603
5554 5549 5550 5545 5542 5545 5557 5554 5545 5547 5557 5555 5550 5551 5550 5556 5568 5575 5591 5597 5602 5604 5608 5614 5619 5621 5623 5622 5623 5622 5623 5620 5617 5620 5621 5623 5621 5618 5614 5610 5605 5600 5594 5588
5538 5536 5533 5530 5530 5538 5540 5535 5535 5539 5543 5545 5539 5542 5542 5546 5556 5567 5579 5586 5591 5595 5598 5606 5611 5611 5612 5612 5614 5612 5610 5609 5608 5609 5610 5610 5607 5604 5599 5595 5590 5585 5580 5574
5527 5526 5519 5517 5521 5522 5524 5523 5525 5527 5528 5527 5525 5528 5533 5536 5545 5557 5568 5575 5580 5585 5590 5591 5601 5603 5603 5605 5603 5599 5602 5601 5600 5597 5598 5597 5594 5589 5585 5581 5577 5572 5566 5560
5517 5511 5509 5502 5505 5508 5506 5511 5513 5512 5514 5515 5514 5517 5523 5524 5534 5546 5556 5566 5571 5575 5582 5586 5591 5593 5592 5591 5592 5592 5592 5591 5590 5589 5586 5582 5579 5577 5572 5568 5563 5557 5552 5546
5506 5499 5491 5485 5491 5483 5486 5493 5495 5495 5501 5502 5501 5505 5510 5513 5525 5537 5548 5553 5562 5568 5573 5581 5582 5586 5586 5588 5588 5586 5584 5582 5580 5577 5575 5573 5568 5563 5558 5554 5549 5543 5536 5530